Nantucket, MA

1:12 PM EDT on May 24, 2017 (GMT -0400)
Nantucket Memorial

Weather History for KACK - September, 2014

Change the Weather History Date:

Sunday, September 14, 2014

  Actual Average Record
Temperature  
Mean Temperature 58 °F -  
Max Temperature 64 °F 72 °F 81 °F (1971)
Min Temperature 48 °F 58 °F 47 °F (1964)
Degree Days  
Heating Degree Days 8    
Growing Degree Days 8 (Base 50)    
Moisture  
Dew Point 52 °F    
Average Humidity 76    
Maximum Humidity 94    
Minimum Humidity 58    
Precipitation  
Precipitation 0.00 in - - ()
Sea Level Pressure  
Sea Level Pressure 30.16 in    
Wind  
Wind Speed 10 mph (North)    
Max Wind Speed 20 mph    
Max Gust Speed 28 mph    
Visibility 10 miles    
Events      
Averages and records for this station are not official NWS values.
T = Trace of Precipitation, MM = Missing Value Source: NWS Daily Summary

Daily Weather History Graph

Daily Weather History Graph

Search for Another Location

Airport or City:

Trip Planner

Search our weather history database for the weather conditions in past years. The results will help you decide how hot, cold, wet, or windy it might be!

Date:

Astronomy

Sep. 14, 2014 Rise Set
Actual Time 6:19 AM EDT 6:51 PM EDT
Civil Twilight 5:51 AM EDT 7:18 PM EDT
Nautical Twilight 5:19 AM EDT 7:51 PM EDT
Astronomical Twilight 4:45 AM EDT 8:25 PM EDT
Moon 10:37 PM EDT (9/14) 12:26 PM EDT (9/14)
Length of Visible Light 13h 27m
Length of Day
12h 31m
Waning Gibbous, 64% of the Moon is Illuminated
Sep 14
Waning Gibbous
Sep 15
Last Quarter
Sep 24
New
Oct 1
First Quarter
Oct 8
Full

Hourly Weather History & Observations

Time (EDT) Temp. Dew Point Humidity Pressure Visibility Wind Dir Wind Speed Gust Speed Precip Events Conditions
12:53 AM 64.0 °F 62.1 °F 93% 30.07 in 10.0 mi North 4.6 mph - 0.00 in   Overcast
1:18 AM 64.4 °F 62.6 °F 94% 30.07 in 10.0 mi NNW 4.6 mph - N/A   Overcast
1:53 AM 64.9 °F 62.1 °F 90% 30.08 in 10.0 mi NNW 10.4 mph - N/A   Overcast
2:53 AM 64.0 °F 59.0 °F 84% 30.08 in 10.0 mi NNW 13.8 mph - N/A   Overcast
3:53 AM 63.0 °F 57.9 °F 84% 30.09 in 10.0 mi NW 16.1 mph 21.9 mph N/A   Overcast
4:53 AM 62.1 °F 57.0 °F 84% 30.10 in 10.0 mi NNW 11.5 mph - N/A   Mostly Cloudy
5:53 AM 60.1 °F 55.0 °F 83% 30.13 in 10.0 mi NNW 15.0 mph - N/A   Mostly Cloudy
6:53 AM 60.1 °F 54.0 °F 80% 30.15 in 10.0 mi NNW 13.8 mph - N/A   Mostly Cloudy
7:53 AM 62.1 °F 54.0 °F 75% 30.17 in 10.0 mi North 15.0 mph 20.7 mph N/A   Mostly Cloudy
8:24 AM 62.6 °F 53.6 °F 72% 30.18 in 10.0 mi North 18.4 mph 24.2 mph N/A   Scattered Clouds
8:53 AM 63.0 °F 52.0 °F 67% 30.18 in 10.0 mi NNW 17.3 mph 24.2 mph N/A   Scattered Clouds
9:53 AM 63.0 °F 50.0 °F 63% 30.18 in 10.0 mi North 18.4 mph 27.6 mph N/A   Clear
10:53 AM 63.0 °F 48.9 °F 60% 30.19 in 10.0 mi North 19.6 mph - N/A   Partly Cloudy
11:53 AM 64.0 °F 51.1 °F 63% 30.18 in 10.0 mi NNE 13.8 mph 23.0 mph N/A   Partly Cloudy
12:53 PM 63.0 °F 50.0 °F 63% 30.19 in 10.0 mi North 13.8 mph 20.7 mph N/A   Partly Cloudy
1:53 PM 64.0 °F 50.0 °F 60% 30.18 in 10.0 mi North 10.4 mph 18.4 mph N/A   Partly Cloudy
2:53 PM 64.9 °F 51.1 °F 61% 30.18 in 10.0 mi NNW 10.4 mph - N/A   Scattered Clouds
3:53 PM 64.0 °F 48.9 °F 58% 30.18 in 10.0 mi North 6.9 mph - N/A   Clear
4:53 PM 62.1 °F 48.9 °F 62% 30.18 in 10.0 mi NNE 5.8 mph - N/A   Clear
5:53 PM 59.0 °F 50.0 °F 72% 30.19 in 10.0 mi NE 6.9 mph - N/A   Clear
6:53 PM 55.9 °F 48.9 °F 77% 30.19 in 10.0 mi NE 4.6 mph - N/A   Clear
7:53 PM 54.0 °F 48.0 °F 80% 30.21 in 10.0 mi ENE 4.6 mph - N/A   Clear
8:53 PM 51.1 °F 46.9 °F 86% 30.21 in 10.0 mi NE 3.5 mph - N/A   Clear
9:53 PM 53.1 °F 46.9 °F 80% 30.21 in 10.0 mi NNE 3.5 mph - N/A   Clear
10:53 PM 51.1 °F 46.9 °F 86% 30.20 in 10.0 mi Calm Calm - N/A   Clear
11:53 PM 48.9 °F 45.0 °F 86% 30.19 in 10.0 mi Calm Calm - N/A   Clear